contact:dominique.lefevre@mio.osupytheas.fr, maurice.libes@osupytheas.fr
Project:EMSO Ligure-ouest http://www.emso-fr.org/EMSO-France
Sensor Aquadopp, line 13 Serial AQD14315 
DOI : "https://doi.org/10.17882/74513; https://doi.org/10.17882/83244" 
Title:EMSO Ligure Ouest : Data ligne ALBATROSS capteur AQUADOPP - deploiement 2021
Id,Date,Profondeur,Latitude,Longitude,X_East,Y_North,Z_Up,Amplitude_X,Amplitude_Y,Amplitude_Z,Batterie,SoundSpeed,Heading,Pitch,Roll,Pressure,Temperature,Speed,Direction
, , m, degrees North, degrees East, m.s-1, m.s-1,m.s-1, 1, 1, 1, Volt, m.s-1, degree, degree, degree, dbar, degree_C, m.s-1, degree
07,2023-01-28T23:30:00,1500.0,42.79,6.0312,0.024,-0.016,0.005,55.0,57.0,55.0,12.5,1504.2,84.8,-0.3,0.9,1474.9,13.14,0.028,123.7
07,2023-01-29T00:00:00,1500.0,42.79,6.0312,0.016,-0.023,0.007,55.0,56.0,56.0,12.5,1504.2,67.8,0.1,0.8,1474.903,13.15,0.028,145.2
07,2023-01-29T00:30:00,1500.0,42.79,6.0312,0.024,-0.027,0.013,56.0,56.0,55.0,12.5,1504.2,65.3,-0.3,1.1,1474.898,13.14,0.036,138.4
07,2023-01-29T01:00:00,1500.0,42.79,6.0312,0.023,-0.017,-0.017,55.0,57.0,56.0,12.4,1504.2,62.8,0.3,1.0,1474.955,13.14,0.028,126.5
07,2023-01-29T01:30:00,1500.0,42.79,6.0312,0.03,-0.023,-0.001,57.0,56.0,56.0,12.5,1504.2,68.4,0.4,1.0,1474.895,13.14,0.037,127.5
07,2023-01-29T02:00:00,1500.0,42.79,6.0312,0.032,-0.02,0.022,55.0,57.0,57.0,12.5,1504.2,66.5,0.0,0.8,1474.91,13.14,0.037,122.0
07,2023-01-29T02:30:00,1500.0,42.79,6.0312,0.032,-0.018,0.0,56.0,57.0,55.0,12.5,1504.2,56.6,0.0,1.0,1474.928,13.14,0.036,119.4
07,2023-01-29T03:00:00,1500.0,42.79,6.0312,0.034,-0.025,0.016,56.0,57.0,55.0,12.5,1504.1,58.9,0.2,0.8,1474.917,13.13,0.042,126.3
07,2023-01-29T03:30:00,1500.0,42.79,6.0312,0.039,-0.025,0.015,56.0,55.0,56.0,12.5,1504.1,38.1,0.3,0.8,1474.883,13.13,0.046,122.7
07,2023-01-29T04:00:00,1500.0,42.79,6.0312,0.038,-0.031,0.012,56.0,56.0,55.0,12.5,1504.1,41.0,0.3,1.0,1474.862,13.13,0.049,129.2
07,2023-01-29T04:30:00,1500.0,42.79,6.0312,0.035,-0.028,0.014,56.0,57.0,56.0,12.5,1504.2,45.9,0.0,0.9,1474.889,13.14,0.044,128.7
07,2023-01-29T05:00:00,1500.0,42.79,6.0312,0.031,-0.037,0.014,56.0,57.0,57.0,12.5,1504.2,52.5,0.1,1.0,1474.892,13.14,0.048,140.0
07,2023-01-29T05:30:00,1500.0,42.79,6.0312,0.032,-0.036,-0.011,56.0,58.0,56.0,12.5,1504.2,56.9,-0.1,0.8,1474.887,13.14,0.048,138.4
07,2023-01-29T06:00:00,1500.0,42.79,6.0312,0.034,-0.049,-0.003,57.0,57.0,55.0,12.5,1504.2,57.3,0.1,1.1,1474.875,13.14,0.059,145.2
07,2023-01-29T06:30:00,1500.0,42.79,6.0312,0.037,-0.032,-0.01,56.0,58.0,57.0,12.5,1504.2,63.9,0.2,1.1,1474.863,13.14,0.048,130.9
07,2023-01-29T07:00:00,1500.0,42.79,6.0312,0.031,-0.034,-0.012,58.0,58.0,57.0,12.5,1504.2,58.0,0.2,0.8,1474.894,13.14,0.046,137.6
07,2023-01-29T07:30:00,1500.0,42.79,6.0312,0.031,-0.035,0.004,55.0,56.0,55.0,12.5,1504.2,66.7,0.1,1.1,1474.892,13.15,0.046,138.5
07,2023-01-29T08:00:00,1500.0,42.79,6.0312,0.026,-0.03,-0.009,55.0,56.0,54.0,12.5,1504.2,64.6,0.1,0.8,1474.899,13.15,0.039,139.1
07,2023-01-29T08:30:00,1500.0,42.79,6.0312,0.035,-0.036,-0.002,55.0,58.0,54.0,12.5,1504.2,61.7,0.2,0.9,1474.852,13.15,0.05,135.8
07,2023-01-29T09:00:00,1500.0,42.79,6.0312,0.029,-0.03,-0.003,55.0,56.0,55.0,12.5,1504.2,68.3,-0.1,1.0,1474.879,13.15,0.041,136.0
07,2023-01-29T09:30:00,1500.0,42.79,6.0312,0.018,-0.017,-0.001,55.0,58.0,56.0,12.5,1504.2,67.1,-0.1,1.0,1474.905,13.14,0.024,133.4
07,2023-01-29T10:00:00,1500.0,42.79,6.0312,0.021,-0.025,0.012,55.0,56.0,56.0,12.5,1504.2,49.4,0.6,1.0,1474.918,13.14,0.032,140.0
07,2023-01-29T10:30:00,1500.0,42.79,6.0312,0.036,-0.031,0.004,55.0,56.0,54.0,12.5,1504.2,50.2,0.5,1.1,1474.919,13.14,0.047,130.7
07,2023-01-29T11:00:00,1500.0,42.79,6.0312,0.04,-0.023,0.006,53.0,55.0,53.0,12.5,1504.2,50.4,0.3,0.8,1474.93,13.14,0.046,119.9
07,2023-01-29T11:30:00,1500.0,42.79,6.0312,0.031,-0.028,0.019,52.0,55.0,52.0,12.5,1504.1,53.2,0.0,0.9,1474.964,13.13,0.041,132.1
07,2023-01-29T12:00:00,1500.0,42.79,6.0312,0.028,-0.028,0.0,49.0,49.0,50.0,12.5,1504.1,56.5,0.5,1.0,1474.961,13.13,0.039,135.0
07,2023-01-29T12:30:00,1500.0,42.79,6.0312,0.03,-0.028,-0.01,51.0,50.0,49.0,12.5,1504.1,56.2,0.1,1.1,1474.967,13.13,0.041,133.0
07,2023-01-29T13:00:00,1500.0,42.79,6.0312,0.021,-0.019,-0.008,50.0,50.0,50.0,12.5,1504.2,59.4,0.2,0.8,1474.974,13.14,0.028,132.1
07,2023-01-29T13:30:00,1500.0,42.79,6.0312,0.03,-0.028,0.004,50.0,51.0,49.0,12.5,1504.2,52.4,0.1,1.1,1474.933,13.14,0.041,133.0
07,2023-01-29T14:00:00,1500.0,42.79,6.0312,0.036,-0.026,-0.009,52.0,50.0,50.0,12.5,1504.2,45.2,0.3,0.8,1474.936,13.14,0.044,125.8
07,2023-01-29T14:30:00,1500.0,42.79,6.0312,0.044,-0.018,-0.007,53.0,53.0,52.0,12.5,1504.2,51.0,-0.3,0.8,1474.947,13.14,0.047,112.2
07,2023-01-29T15:00:00,1500.0,42.79,6.0312,0.035,-0.03,-0.003,52.0,54.0,52.0,12.5,1504.2,48.1,0.0,0.8,1474.947,13.14,0.046,130.6
07,2023-01-29T15:30:00,1500.0,42.79,6.0312,0.04,-0.036,0.002,53.0,53.0,53.0,12.5,1504.2,39.0,0.0,0.8,1474.952,13.14,0.053,132.0
07,2023-01-29T16:00:00,1500.0,42.79,6.0312,0.038,-0.028,0.003,55.0,57.0,54.0,12.5,1504.2,36.4,0.7,0.9,1474.939,13.14,0.047,126.4
07,2023-01-29T16:30:00,1500.0,42.79,6.0312,0.04,-0.031,-0.004,55.0,55.0,55.0,12.5,1504.2,35.4,0.0,0.8,1474.944,13.14,0.05,127.8
07,2023-01-29T17:00:00,1500.0,42.79,6.0312,0.041,-0.026,-0.017,55.0,56.0,54.0,12.5,1504.2,35.0,0.1,1.1,1474.911,13.14,0.048,122.4
07,2023-01-29T17:30:00,1500.0,42.79,6.0312,0.04,-0.028,0.004,54.0,56.0,54.0,12.5,1504.2,37.7,0.2,0.9,1474.91,13.14,0.048,125.0
07,2023-01-29T18:00:00,1500.0,42.79,6.0312,0.023,-0.026,0.008,54.0,56.0,54.0,12.5,1504.2,36.6,0.0,1.1,1474.902,13.14,0.034,138.5
07,2023-01-29T18:30:00,1500.0,42.79,6.0312,0.029,-0.025,0.01,55.0,56.0,55.0,12.5,1504.2,41.3,0.0,0.8,1474.896,13.14,0.038,130.8
07,2023-01-29T19:00:00,1500.0,42.79,6.0312,0.02,-0.026,0.0,55.0,56.0,55.0,12.5,1504.2,38.8,-0.3,0.9,1474.869,13.14,0.032,142.4
07,2023-01-29T19:30:00,1500.0,42.79,6.0312,0.026,-0.034,-0.01,54.0,55.0,56.0,12.5,1504.2,36.5,-0.4,0.8,1474.872,13.15,0.042,142.6
07,2023-01-29T20:00:00,1500.0,42.79,6.0312,0.027,-0.025,-0.002,55.0,56.0,56.0,12.5,1504.2,40.1,0.0,0.9,1474.871,13.15,0.036,132.8
07,2023-01-29T20:30:00,1500.0,42.79,6.0312,0.028,-0.014,-0.001,55.0,56.0,55.0,12.5,1504.2,38.4,0.0,1.1,1474.86,13.14,0.031,116.6
07,2023-01-29T21:00:00,1500.0,42.79,6.0312,0.025,-0.02,0.005,55.0,58.0,54.0,12.5,1504.2,36.0,0.6,0.7,1474.849,13.15,0.032,128.7
07,2023-01-29T21:30:00,1500.0,42.79,6.0312,0.039,-0.02,-0.015,57.0,57.0,57.0,12.5,1504.2,34.3,-0.1,0.8,1474.845,13.15,0.043,117.1
07,2023-01-29T22:00:00,1500.0,42.79,6.0312,0.035,-0.014,0.012,56.0,57.0,55.0,12.4,1504.2,34.0,0.3,0.8,1474.847,13.15,0.037,111.8
07,2023-01-29T22:30:00,1500.0,42.79,6.0312,0.044,-0.01,0.004,57.0,57.0,56.0,12.5,1504.2,31.9,-0.3,0.9,1474.867,13.15,0.045,102.8
07,2023-01-29T23:00:00,1500.0,42.79,6.0312,0.044,-0.016,0.006,56.0,57.0,57.0,12.5,1504.2,36.7,-0.3,0.8,1474.881,13.15,0.046,110.0
